Погода в Усть-Невинском

Россия / Ставропольский край     44°32′12″N   41°57′00″E
темп.,
°C
ветер,
м/с
пор.,
м/с
влажн.,
%
обл.,
%
осадки,
мм/ч
давл.,
гПа
погр.,
м
12 мая, ср
ср1200:00+6ссв1192100 0.0 101617
03:00+4юв119484 0.0 101710
06:00+5зсз11936 0.0 101848
09:00+11в23740 0.0 1016560
12:00+16в55610 0.0 10151224
15:00+17в66575 0.0 10141202
18:00+15в5106951 0.0 1014663
21:00+12в497470 0.0 1013227
13 мая, чт
чт1300:00+9юв33870 0.0 101343
03:00+9ююв22888 0.0 101315
06:00+10ю22750 0.0 101433
09:00+17вюв12560 0.0 1013326
12:00+22всв44545 0.0 1013800
15:00+23в555520 0.0 1013987
18:00+20в48724 0.0 1013333
21:00+15в338813 0.0 101436
14 мая, пт
пт1400:00+14юв3388100 0.0 101342
03:00+13ююв33880 0.0 101329
06:00+14ююв33800 0.0 101346
09:00+22вюв23600 0.0 1012319
12:00+27в33480 0.0 1011668
15:00+27в56540 0.0 1010863
18:00+23в47730 0.0 1010277
21:00+18вюв33865 0.0 101130
15 мая, сб
сб1500:00+16ююв33814 0.0 101140
03:00+15ююз22655 0.0 101217
06:00+16юз22695 0.0 101325
09:00+22зсз46725 0.0 1013542
12:00+25сз34584 0.0 1013947
15:00+26с34580 0.0 10121326
18:00+24ссв3472100 0.1 1012116
21:00+20с1184100 0.3 101211
16 мая, вс
вс1600:00+18вюв118990 0.0 101111
03:00+16ююв229216 0.0 101116
06:00+17ю118911 0.0 101044
09:00+22в23707 0.0 1008575
12:00+25в676237 0.0 10071154
15:00+25в7961100 0.0 10051307
18:00+22в6136265 0.0 1004463
21:00+19в51358100 0.0 1003328